User: anonymous   Login
Location: Unspecified
(0.0000°N, 0.0000°E)
Time: 22:16:38
(UTC+02:00)
Language:

ISS - Orbit

View from above orbital plane
View from above orbital plane
View from above satellite
View from above satellite

Ground track
Ground track

The orbit data is extracted from the following two-line orbital elements,

1 25544U 98067A   15211.53448373  .00036210  00000-0  53534-3 0  9992
2 25544 051.6428 227.5798 0000851 005.8214 129.5441 15.54956159954781
Epoch (UTC): 30 July 2015 12:49:39
Eccentricity: 0.0000851
inclination: 51.6428°
perigee height: 402 km
apogee height: 403 km
right ascension of ascending node: 227.5798°
argument of perigee: 5.8214°
revolutions per day: 15.54956159
mean anomaly at epoch: 129.5441°
orbit number at epoch: 95478

The dashed part of the orbit path shows where the satellite is in the earth's shadow,  

DLR